Location: Kuffner-Sternwarte
(48.2130°N, 16.2960°E)
Time: 09:53:00
(UTC+02:00)

COROT - Visible Passes

Search period start: 17 August 2017 00:00
Search period end: 27 August 2017 00:00
Orbit: 603 x 887 km, 90.0° (Epoch: 16 August)

Date Brightness Start Highest point End Pass type
(mag) Time Alt. Az. Time Alt. Az. Time Alt. Az.
17 Aug 8.7 02:32:13 10° ESE 02:35:27 16° ENE 02:38:47 10° NNE visible
17 Aug 6.2 04:08:42 10° S 04:14:10 89° W 04:19:57 10° N visible
18 Aug 7.2 03:26:10 10° SSE 03:31:22 45° E 03:36:51 10° N visible
18 Aug 7.1 05:06:19 10° SW 05:11:08 30° W 05:16:10 10° NNW visible
19 Aug 8.3 02:44:32 10° ESE 02:48:50 23° ENE 02:53:16 10° NNE visible
19 Aug 6.3 04:22:49 12° SSW 04:27:55 61° W 04:33:40 10° N visible
20 Aug 8.9 02:04:35 10° E 02:06:33 12° ENE 02:08:32 10° NE visible
20 Aug 6.5 03:40:08 14° SSE 03:44:58 67° E 03:50:44 10° N visible
20 Aug 7.6 05:20:56 10° SW 05:25:07 21° WNW 05:29:27 10° NNW visible
21 Aug 7.7 02:57:27 11° SE 03:02:18 34° ENE 03:07:27 10° NNE visible
21 Aug 6.7 04:37:16 14° SSW 04:41:45 42° W 04:47:15 10° NNW visible
22 Aug 8.6 02:16:14 10° ESE 02:19:53 18° ENE 02:23:34 10° NNE visible
22 Aug 6.2 03:54:35 20° S 03:58:40 84° W 04:04:31 10° N visible
23 Aug 7.0 03:11:53 18° SSE 03:15:51 49° E 03:21:26 10° N visible
23 Aug 7.2 04:51:41 14° SW 04:55:40 29° W 05:00:41 10° NNW visible
24 Aug 8.1 02:29:11 12° ESE 02:33:17 26° ENE 02:37:56 10° NNE visible
24 Aug 6.4 04:09:00 24° SSW 04:12:27 57° W 04:18:11 10° N visible
25 Aug 8.8 01:48:26 10° E 01:50:57 13° ENE 01:53:29 10° NE visible
25 Aug 6.4 03:26:18 27° SSE 03:29:29 73° E 03:35:17 10° N visible
25 Aug 7.7 05:06:07 12° WSW 05:09:40 20° WNW 05:13:52 10° NNW visible
26 Aug 7.5 02:43:36 21° SE 02:46:46 37° ENE 02:52:02 10° NNE visible
26 Aug 6.8 04:23:24 24° SW 04:26:18 39° W 04:31:43 10° NNW visible
